This is the latest recevied weather packets stored in our database for station/object W7MKM-13. If no packets are shown the sender has not sent any weather packets the latest 10 day(s).
| Time | Temp. | Humidity | Pressure | Rain* | Wind** | Luminosity | Snow |
|---|---|---|---|---|---|---|---|
| 1777432817 | 8.89° C | 55% | 1020.9 hPa | 0 mm | - | 0 W/m² | - |
| 1777430117 | 11.11° C | 44% | 1020.4 hPa | 0 mm | - | 0 W/m² | - |
| 1777429517 | 11.11° C | 42% | 1020.4 hPa | 0 mm | - | 2 W/m² | - |
| 1777428617 | 11.67° C | 40% | 1020.7 hPa | 0 mm | - | 13 W/m² | - |
| 1777426517 | 12.22° C | 38% | 1019.6 hPa | 0 mm | - | 73 W/m² | - |
| 1777424717 | 12.78° C | 38% | 1019.9 hPa | 0 mm | - | 182 W/m² | - |
| 1777424117 | 12.78° C | 38% | 1020 hPa | 0 mm | - | 227 W/m² | - |
| 1777423817 | 12.78° C | 38% | 1020 hPa | 0 mm | - | 207 W/m² | - |
| 1777422917 | 12.22° C | 39% | 1020.1 hPa | 0 mm | - | 285 W/m² | - |
| 1777419317 | 12.78° C | 38% | 1020.4 hPa | 0 mm | - | 131 W/m² | - |
| 1777419017 | 12.78° C | 38% | 1020.5 hPa | 0 mm | - | 253 W/m² | - |
| 1777417517 | 12.78° C | 39% | 1020.5 hPa | 0 mm | - | 638 W/m² | - |
| 1777410617 | 13.33° C | 42% | 1022.1 hPa | 0 mm | - | 456 W/m² | - |
| 1777408217 | 12.22° C | 41% | 1022 hPa | 0 mm | - | 596 W/m² | - |
| 1777407917 | 12.22° C | 41% | 1022 hPa | 0 mm | - | 556 W/m² | - |
| 1777406117 | 12.22° C | 43% | 1022 hPa | 0 mm | - | 717 W/m² | - |
| 1777404317 | 12.22° C | 43% | 1022.4 hPa | 0 mm | - | 377 W/m² | - |
| 1777403717 | 12.22° C | 47% | 1022.5 hPa | 0 mm | - | 1105 W/m² | - |
| 1777399817 | 10.56° C | 52% | 1022.8 hPa | 0 mm | - | 263 W/m² | - |
| 1777397417 | 11.11° C | 58% | 1023.2 hPa | 0 mm | - | 983 W/m² | - |
| 1777396817 | 11.11° C | 58% | 1023.2 hPa | 0 mm | - | 884 W/m² | - |
| 1777394717 | 10° C | 64% | 1023.1 hPa | 0.25 mm | - | 778 W/m² | - |
| 1777393217 | 9.44° C | 66% | 1023 hPa | 0.25 mm | - | 702 W/m² | - |
| 1777392017 | 8.89° C | 71% | 1023.1 hPa | 0 mm | - | 644 W/m² | - |
| 1777390817 | 8.33° C | 74% | 1022.7 hPa | 0 mm | - | 583 W/m² | - |
* Rain latest hour (hover to see other rain measurements)
** Current wind speed in m/s (hover to see current wind gust speed)